Portsmouth, NH

6:56 PM EDT on August 22, 2017 (GMT -0400)
Pease International Tradeport

Weather History for KPSM - March, 2014

Change the Weather History Date:

Monday, March 10, 2014

  Actual Average Record
Temperature  
Mean Temperature 31 °F -  
Max Temperature 38 °F 37 °F 67 °F (1977)
Min Temperature 24 °F 22 °F -4 °F (1996)
Degree Days  
Heating Degree Days 34    
Moisture  
Dew Point 23 °F    
Average Humidity 76    
Maximum Humidity 100    
Minimum Humidity 38    
Precipitation  
Precipitation 0.00 in - - ()
Snow  
Snow 0.00 in - - ()
Snow Depth 2.00 in    
Sea Level Pressure  
Sea Level Pressure 29.78 in    
Wind  
Wind Speed 5 mph (SSW)    
Max Wind Speed 13 mph    
Max Gust Speed -    
Visibility 8 miles    
Events Rain , Snow    
Averages and records for this station are not official NWS values.
T = Trace of Precipitation, MM = Missing Value Source: NWS Daily Summary

Daily Weather History Graph

Daily Weather History Graph

Search for Another Location

Airport or City:

Trip Planner

Search our weather history database for the weather conditions in past years. The results will help you decide how hot, cold, wet, or windy it might be!

Date:

Astronomy

Mar. 10, 2014 Rise Set
Actual Time 7:04 AM EDT 6:43 PM EDT
Civil Twilight 6:35 AM EDT 7:11 PM EDT
Nautical Twilight 6:02 AM EDT 7:44 PM EDT
Astronomical Twilight 5:29 AM EDT 8:18 PM EDT
Moon 1:18 PM EDT (3/10) 3:20 AM EDT (3/10)
Length of Visible Light 12h 36m
Length of Day
11h 39m
Waxing Gibbous, 70% of the Moon is Illuminated
Mar 10
Waxing Gibbous
Mar 16
Full
Mar 23
Last Quarter
Mar 30
New
Apr 7
First Quarter

Hourly Weather History & Observations

Time (EDT) Temp. Windchill Dew Point Humidity Pressure Visibility Wind Dir Wind Speed Gust Speed Precip Events Conditions
12:58 AM 27.5 °F - 4.6 °F 38% 29.88 in 10.0 mi SW 2.3 mph - N/A   Overcast
1:58 AM 27.5 °F 22.2 °F 5.7 °F 40% 29.87 in 10.0 mi SSW 4.6 mph - N/A   Overcast
2:58 AM 27.9 °F 24.0 °F 7.9 °F 43% 29.85 in 10.0 mi SSW 3.5 mph - N/A   Overcast
3:58 AM 28.2 °F - 9.0 °F 44% 29.83 in 10.0 mi SW 2.3 mph - N/A   Overcast
4:43 AM 28.4 °F 20.4 °F 15.8 °F 59% 29.81 in 8.0 mi West 8.1 mph - N/A Snow Light Snow
4:58 AM 28.0 °F 19.3 °F 17.8 °F 65% 29.83 in 3.0 mi West 9.2 mph - 0.00 in Snow Light Snow
5:05 AM 26.6 °F 17.5 °F 19.4 °F 74% 29.82 in 1.5 mi West 9.2 mph - N/A Snow Light Snow
5:43 AM 24.8 °F 20.5 °F 24.8 °F 100% 29.81 in 2.5 mi West 3.5 mph - N/A Snow Light Snow
5:58 AM 25.5 °F 19.9 °F 25.3 °F 99% 29.83 in 1.5 mi WSW 4.6 mph - 0.00 in Snow Light Snow
6:08 AM 24.8 °F 20.5 °F 24.8 °F 100% 29.81 in 3.0 mi WSW 3.5 mph - N/A Snow Light Snow
6:58 AM 25.0 °F - 24.8 °F 99% 29.82 in 5.0 mi Calm Calm - 0.00 in Snow Light Snow
7:13 AM 24.8 °F - 24.8 °F 100% 29.80 in 6.0 mi South 1.2 mph - N/A Snow Light Snow
7:40 AM 24.8 °F - 24.8 °F 100% 29.80 in 10.0 mi South 1.2 mph - N/A   Mostly Cloudy
7:58 AM 24.8 °F - 24.6 °F 99% 29.81 in 10.0 mi SSE 2.3 mph - 0.00 in   Mostly Cloudy
8:58 AM 27.1 °F - 26.6 °F 98% 29.82 in 10.0 mi Calm Calm - N/A   Mostly Cloudy
9:58 AM 29.8 °F 23.0 °F 26.6 °F 88% 29.81 in 10.0 mi SW 6.9 mph - N/A   Mostly Cloudy
10:58 AM 32.5 °F 27.1 °F 25.7 °F 76% 29.81 in 10.0 mi West 5.8 mph - N/A   Mostly Cloudy
11:58 AM 34.3 °F 30.2 °F 24.4 °F 67% 29.80 in 10.0 mi Variable 4.6 mph - N/A   Overcast
12:58 PM 37.0 °F 31.6 °F 23.7 °F 59% 29.77 in 10.0 mi WSW 6.9 mph - N/A   Mostly Cloudy
1:58 PM 37.2 °F - 22.3 °F 55% 29.75 in 10.0 mi West 1.2 mph - N/A   Mostly Cloudy
2:58 PM 38.1 °F 34.6 °F 21.6 °F 51% 29.74 in 10.0 mi SW 4.6 mph - N/A   Overcast
3:58 PM 36.0 °F 29.6 °F 25.3 °F 65% 29.73 in 10.0 mi ESE 8.1 mph - N/A   Overcast
4:58 PM 35.8 °F 28.3 °F 24.4 °F 63% 29.72 in 10.0 mi SE 10.4 mph - N/A   Overcast
5:58 PM 34.9 °F 27.1 °F 26.6 °F 72% 29.72 in 10.0 mi SE 10.4 mph - N/A   Mostly Cloudy
6:58 PM 34.3 °F 28.4 °F 29.5 °F 82% 29.73 in 10.0 mi SE 6.9 mph - N/A   Overcast
7:58 PM 34.5 °F 27.9 °F 30.2 °F 84% 29.72 in 10.0 mi SE 8.1 mph - N/A   Overcast
8:58 PM 35.1 °F 31.0 °F 31.3 °F 86% 29.72 in 10.0 mi South 4.6 mph - N/A   Overcast
9:58 PM 35.4 °F 28.4 °F 31.5 °F 85% 29.70 in 10.0 mi SSE 9.2 mph - N/A   Overcast
10:58 PM 35.4 °F 26.8 °F 33.3 °F 92% 29.67 in 10.0 mi SSE 12.7 mph - N/A   Overcast
11:28 PM 35.6 °F 29.2 °F 32.0 °F 87% 29.65 in 8.0 mi South 8.1 mph - N/A Rain Light Rain
11:58 PM 34.9 °F 29.9 °F 34.7 °F 99% 29.65 in 7.0 mi SSE 5.8 mph - 0.00 in Rain , Snow Light Rain